Flag for USA Past Weather in Avalon (Santa Catalina Island), California, USA — Yesterday and Last 2 Weeks

Now
85 °F

Sunny.


Feels Like: 82 °F
Forecast: 71 / 82 °F
Wind: 6 mph from Northwest

Location: Catalina Airport

Current Time: Aug 30, 2016 at 7:28:40 PM

Latest Report: Aug 30, 2016 at 6:51 PM


Visibility: 10 mi

Pressure: 29.75 "Hg

Humidity: 24%

Dew Point: 44 °F

Location of Avalon (Santa Catalina Island)Location

Past Weather in Avalon (Santa Catalina Island) — Graph

°F

Avalon (Santa Catalina Island) Temperature Yesterday

Maximum temperature yesterday: 88 °F (at 3:51 PM)
Minimum temperature yesterday: 70 °F (at 6:51 AM)
Average temperature yesterday: 79 °F

High & Low Weather Summary for the Past Weeks

 TemperatureHumidityPressure
High92 °F (Aug 16, 2:51 PM)100% (Aug 19, 5:51 AM)30.05 "Hg (Aug 19, 5:51 AM)
Low57 °F (Aug 25, 7:51 PM)4% (Aug 17, 3:51 AM)29.76 "Hg (Aug 30, 5:51 PM)
Average70 °F61%29.90 "Hg
* Reported Aug 15 5:51 PM — Aug 30 5:51 PM, Avalon (Santa Catalina Island), Weather by CustomWeather, © 2016

Note: Actual official high and low records may vary slightly from our data, if they occured in-between our weather recording intervals... More about our weather records

Advertising

Avalon (Santa Catalina Island) Weather History for the Previous 24 Hours

Scroll right to see more
 ConditionsComfort  
Time TempWeatherWind HumidityBarometerVisibility
5:51 PM
Tue, Aug 30
87 °FSunny.7 mph28%29.76 "Hg10 mi
4:51 PM82 °FSunny.9 mph40%29.77 "Hg10 mi
3:51 PM85 °FSunny.7 mph39%29.77 "Hg10 mi
2:51 PM85 °FSunny.9 mph35%29.78 "Hg10 mi
1:51 PM89 °FSunny.9 mph29%29.79 "Hg10 mi
12:51 PM88 °FSunny.8 mph33%29.80 "Hg10 mi
11:51 AM88 °FSunny.6 mph28%29.82 "Hg10 mi
10:51 AM89 °FSunny.6 mph23%29.83 "Hg10 mi
9:51 AM90 °FSunny.No wind27%29.82 "Hg10 mi
8:51 AM86 °FSunny.No wind33%29.83 "Hg10 mi
7:51 AM85 °FSunny.No wind31%29.81 "Hg10 mi
6:51 AM78 °FClear.3 mph40%29.81 "Hg10 mi
5:51 AM75 °FClear.3 mph45%29.80 "Hg10 mi
4:51 AM80 °FClear.3 mph36%29.80 "Hg10 mi
3:51 AM80 °FClear.3 mph35%29.80 "Hg10 mi
2:51 AM80 °FClear.6 mph36%29.81 "Hg10 mi
1:51 AM79 °FClear.7 mph41%29.83 "Hg10 mi
12:51 AM79 °FClear.9 mph39%29.83 "Hg10 mi
11:51 PM
Mon, Aug 29
79 °FClear.12 mph38%29.85 "Hg10 mi
10:51 PM79 °FClear.10 mph39%29.85 "Hg10 mi
9:51 PM80 °FClear.10 mph38%29.85 "Hg10 mi
8:51 PM80 °FClear.12 mph39%29.85 "Hg10 mi
7:51 PM83 °FSunny.14 mph26%29.83 "Hg10 mi
Weather by CustomWeather, © 2016

See weather overviewHow to use our weather pages